TimeEDT,TemperatureF,Dew PointF,Humidity,Sea Level PressureIn,VisibilityMPH,Wind Direction,Wind SpeedMPH,Gust SpeedMPH,PrecipitationIn,Events,Conditions,WindDirDegrees,DateUTC
12:15 AM,60.8,53.6,77,30.23,10.0,Calm,Calm,-,N/A,,Scattered Clouds,0,2012-09-28 04:15:00
12:35 AM,59.0,53.6,82,30.23,10.0,Calm,Calm,-,N/A,,Overcast,0,2012-09-28 04:35:00
12:55 AM,59.0,53.6,82,30.22,10.0,Calm,Calm,-,N/A,,Overcast,0,2012-09-28 04:55:00
1:15 AM,55.4,53.6,94,30.23,4.0,Calm,Calm,-,N/A,,Overcast,0,2012-09-28 05:15:00
1:35 AM,59.0,53.6,82,30.23,10.0,Calm,Calm,-,N/A,,Overcast,0,2012-09-28 05:35:00
1:55 AM,59.0,53.6,82,30.22,10.0,Calm,Calm,-,N/A,,Overcast,0,2012-09-28 05:55:00
2:15 AM,59.0,53.6,82,30.22,10.0,Calm,Calm,-,N/A,,Overcast,0,2012-09-28 06:15:00
2:35 AM,59.0,53.6,82,30.21,10.0,Calm,Calm,-,N/A,,Mostly Cloudy,0,2012-09-28 06:35:00
2:55 AM,59.0,51.8,77,30.21,10.0,Calm,Calm,-,N/A,,Overcast,0,2012-09-28 06:55:00
3:15 AM,59.0,53.6,82,30.21,10.0,Calm,Calm,-,N/A,,Mostly Cloudy,0,2012-09-28 07:15:00
3:35 AM,57.2,53.6,88,30.20,10.0,West,3.5,-,N/A,,Overcast,260,2012-09-28 07:35:00
3:55 AM,59.0,51.8,77,30.20,10.0,Calm,Calm,-,N/A,,Scattered Clouds,0,2012-09-28 07:55:00
4:15 AM,55.4,53.6,94,30.19,10.0,Calm,Calm,-,N/A,,Clear,0,2012-09-28 08:15:00
4:35 AM,59.0,53.6,82,30.19,10.0,West,3.5,-,N/A,,Clear,270,2012-09-28 08:35:00
4:55 AM,57.2,53.6,88,30.19,10.0,WSW,4.6,-,N/A,,Clear,250,2012-09-28 08:55:00
5:15 AM,59.0,53.6,82,30.19,10.0,West,4.6,-,N/A,,Clear,260,2012-09-28 09:15:00
5:35 AM,60.8,53.6,77,30.19,10.0,West,3.5,-,N/A,,Clear,270,2012-09-28 09:35:00
5:55 AM,59.0,53.6,82,30.18,10.0,WNW,5.8,-,N/A,,Scattered Clouds,300,2012-09-28 09:55:00
6:15 AM,57.2,51.8,82,30.19,7.0,WNW,5.8,-,N/A,,Clear,300,2012-09-28 10:15:00
6:35 AM,62.6,53.6,72,30.18,10.0,West,4.6,-,N/A,,Clear,260,2012-09-28 10:35:00
6:55 AM,62.6,53.6,72,30.18,10.0,West,3.5,-,N/A,,Clear,260,2012-09-28 10:55:00
7:15 AM,62.6,53.6,72,30.18,10.0,WNW,4.6,-,N/A,,Clear,290,2012-09-28 11:15:00
7:35 AM,59.0,53.6,82,30.19,10.0,WNW,5.8,-,N/A,,Clear,290,2012-09-28 11:35:00
8:15 AM,59.0,53.6,82,30.18,10.0,Calm,Calm,-,N/A,,Scattered Clouds,0,2012-09-28 12:15:00
8:35 AM,59.0,53.6,82,30.18,10.0,NW,3.5,-,N/A,,Clear,310,2012-09-28 12:35:00
8:55 AM,62.6,55.4,77,30.18,10.0,Calm,Calm,-,N/A,,Scattered Clouds,0,2012-09-28 12:55:00
9:15 AM,62.6,55.4,77,30.19,10.0,Calm,Calm,-,N/A,,Overcast,0,2012-09-28 13:15:00
9:35 AM,62.6,55.4,77,30.20,10.0,Calm,Calm,-,N/A,,Overcast,0,2012-09-28 13:35:00
9:55 AM,60.8,55.4,82,30.20,10.0,Calm,Calm,-,N/A,,Overcast,0,2012-09-28 13:55:00
10:15 AM,62.6,55.4,77,30.20,10.0,Calm,Calm,-,N/A,,Overcast,0,2012-09-28 14:15:00
10:35 AM,64.4,57.2,77,30.21,10.0,Calm,Calm,-,N/A,,Overcast,0,2012-09-28 14:35:00
11:15 AM,66.2,57.2,73,30.21,10.0,Calm,Calm,-,N/A,,Overcast,0,2012-09-28 15:15:00
11:35 AM,66.2,55.4,68,30.20,10.0,WNW,3.5,-,N/A,,Overcast,290,2012-09-28 15:35:00
11:55 AM,68.0,55.4,64,30.20,10.0,WNW,8.1,-,N/A,,Overcast,290,2012-09-28 15:55:00
12:15 PM,64.4,53.6,68,30.21,10.0,NNW,13.8,19.6,N/A,,Overcast,330,2012-09-28 16:15:00
12:35 PM,64.4,53.6,68,30.20,10.0,West,9.2,16.1,N/A,,Mostly Cloudy,280,2012-09-28 16:35:00
12:55 PM,64.4,51.8,64,30.19,10.0,WNW,12.7,-,N/A,,Mostly Cloudy,300,2012-09-28 16:55:00
1:15 PM,68.0,51.8,56,30.18,10.0,WNW,11.5,-,N/A,,Scattered Clouds,290,2012-09-28 17:15:00
1:35 PM,68.0,51.8,56,30.17,10.0,WNW,13.8,18.4,N/A,,Mostly Cloudy,290,2012-09-28 17:35:00
2:15 PM,69.8,53.6,56,30.15,10.0,WNW,15.0,19.6,N/A,,Scattered Clouds,290,2012-09-28 18:15:00
2:35 PM,69.8,55.4,60,30.14,10.0,West,12.7,18.4,N/A,,Scattered Clouds,280,2012-09-28 18:35:00
3:15 PM,69.8,55.4,60,30.13,10.0,Calm,Calm,-,N/A,,Overcast,0,2012-09-28 19:15:00
3:35 PM,68.0,53.6,60,30.13,10.0,NW,6.9,-,N/A,,Mostly Cloudy,320,2012-09-28 19:35:00
3:55 PM,69.8,55.4,60,30.12,10.0,NW,12.7,-,N/A,,Mostly Cloudy,310,2012-09-28 19:55:00
4:15 PM,68.0,55.4,64,30.11,10.0,WNW,13.8,18.4,N/A,,Mostly Cloudy,300,2012-09-28 20:15:00
4:35 PM,68.0,55.4,64,30.12,10.0,West,13.8,-,N/A,,Scattered Clouds,280,2012-09-28 20:35:00
4:55 PM,68.0,53.6,60,30.12,10.0,WNW,11.5,17.3,N/A,,Scattered Clouds,300,2012-09-28 20:55:00
5:15 PM,66.2,55.4,68,30.12,10.0,WNW,11.5,-,N/A,Rain,Light Rain,290,2012-09-28 21:15:00
5:35 PM,64.4,55.4,73,30.12,10.0,Calm,Calm,-,N/A,,Overcast,0,2012-09-28 21:35:00
5:55 PM,64.4,55.4,73,30.12,10.0,West,3.5,-,N/A,,Mostly Cloudy,270,2012-09-28 21:55:00
6:15 PM,64.4,55.4,73,30.13,10.0,West,3.5,-,N/A,Rain,Light Rain,270,2012-09-28 22:15:00
6:35 PM,64.4,55.4,73,30.12,10.0,Calm,Calm,-,N/A,Rain,Light Rain,0,2012-09-28 22:35:00
6:55 PM,64.4,55.4,73,30.12,10.0,West,3.5,-,N/A,,Overcast,260,2012-09-28 22:55:00
7:15 PM,62.6,55.4,77,30.12,10.0,WSW,3.5,-,N/A,,Overcast,240,2012-09-28 23:15:00
7:35 PM,62.6,55.4,77,30.12,10.0,Calm,Calm,-,N/A,,Mostly Cloudy,0,2012-09-28 23:35:00
7:55 PM,60.8,57.2,88,30.13,10.0,Calm,Calm,-,N/A,,Mostly Cloudy,0,2012-09-28 23:55:00
8:15 PM,62.6,55.4,77,30.12,10.0,Calm,Calm,-,N/A,,Overcast,0,2012-09-29 00:15:00
8:35 PM,62.6,55.4,77,30.12,10.0,WSW,3.5,-,N/A,,Overcast,250,2012-09-29 00:35:00
8:55 PM,60.8,55.4,82,30.12,10.0,Calm,Calm,-,N/A,,Overcast,0,2012-09-29 00:55:00
9:15 PM,62.6,55.4,77,30.12,10.0,Calm,Calm,-,N/A,,Overcast,0,2012-09-29 01:15:00
9:35 PM,62.6,53.6,72,30.12,10.0,WNW,3.5,-,N/A,,Overcast,290,2012-09-29 01:35:00
9:55 PM,62.6,51.8,68,30.12,10.0,West,3.5,-,N/A,,Overcast,260,2012-09-29 01:55:00
10:15 PM,62.6,51.8,68,30.12,10.0,West,3.5,-,N/A,,Overcast,280,2012-09-29 02:15:00
10:35 PM,62.6,53.6,72,30.12,10.0,WSW,3.5,-,N/A,,Overcast,250,2012-09-29 02:35:00
10:55 PM,62.6,53.6,72,30.12,10.0,West,4.6,-,N/A,,Overcast,270,2012-09-29 02:55:00
11:15 PM,60.8,53.6,77,30.12,10.0,Calm,Calm,-,N/A,,Overcast,0,2012-09-29 03:15:00
11:35 PM,60.8,53.6,77,30.12,10.0,Calm,Calm,-,N/A,,Overcast,0,2012-09-29 03:35:00
11:55 PM,62.6,53.6,72,30.12,10.0,Calm,Calm,-,N/A,,Overcast,0,2012-09-29 03:55:00